Wind_Speed
23 23 23 22 22 22 21 20 19 19 18 18 17 17 16 15 14 14 13 12 11 11 10 9 9 8 7 6 6 6 6 6 6 6 5 5 5 5 4 4 4 3 3 3 3 4 4 4 4 4 4 5 5 6 7 8 8 9 9 10 10 9 9 8 8 8 8 9 9
23 22 22 22 21 21 20 20 19 18 17 16 16 16 15 14 14 13 12 11 11 10 10 9 8 8 7 6 6 5 6 6 6 6 5 5 5 4 4 3 3 3 3 3 3 3 3 3 3 3 3 4 5 5 6 7 8 9 9 10 9 9 8 8 8 8 8 8 9
22 22 21 21 20 20 20 19 19 17 16 16 15 15 14 14 13 13 12 11 10 10 9 9 8 7 6 6 6 6 6 6 6 5 5 5 4 4 3 3 3 3 3 2 2 2 2 3 3 3 3 4 4 5 6 7 8 9 9 9 9 8 8 7 7 7 8 8 9
21 21 20 20 20 19 19 18 18 17 16 15 15 14 14 13 13 13 12 11 10 10 9 8 8 7 6 5 6 6 6 6 5 5 5 5 5 4 4 3 3 3 3 2 2 1 2 2 3 3 3 4 4 5 6 7 8 9 9 8 8 8 7 7 7 7 8 8 9
20 19 19 19 18 18 17 17 17 17 16 15 15 14 14 13 13 13 12 11 11 10 8 7 7 6 5 5 6 6 6 6 6 6 6 6 6 5 5 4 4 4 3 2 2 1 1 1 2 3 3 4 4 5 5 7 8 8 8 8 7 7 7 7 8 8 8 9 10
20 19 18 18 17 17 17 17 17 17 16 16 15 15 14 14 13 13 12 11 10 9 8 7 6 5 5 6 6 7 7 6 6 6 7 7 7 6 6 6 5 5 4 3 3 2 1 0 1 2 3 3 4 4 5 6 8 8 7 7 7 7 7 8 8 8 9 9 10
20 19 18 18 17 17 17 17 17 17 16 16 15 15 15 14 14 13 12 11 10 9 8 7 6 5 5 6 7 7 7 7 7 7 7 8 7 7 7 7 6 6 5 5 4 3 2 1 1 1 2 3 3 4 5 6 7 8 7 6 6 7 7 8 8 9 9 10 10
20 19 19 18 18 18 18 18 17 17 16 16 15 15 15 14 14 13 12 11 10 9 8 7 6 5 6 7 8 8 8 8 8 8 8 8 8 8 8 8 8 7 7 6 5 4 3 3 2 2 2 3 3 4 5 6 7 8 8 6 6 6 7 8 8 9 9 10 10
20 19 19 18 18 18 18 18 18 17 17 16 15 15 15 15 14 13 12 11 10 8 7 7 6 6 7 8 9 9 9 9 9 9 9 9 9 9 9 9 9 9 8 8 7 6 5 4 3 3 3 3 4 4 5 5 7 8 8 7 6 6 7 7 8 9 9 10 10
21 20 20 19 19 18 18 18 17 17 16 16 16 16 15 15 14 13 12 11 9 8 7 7 7 8 8 9 10 10 10 10 10 10 10 10 10 10 10 10 10 10 10 9 8 7 6 5 4 4 4 4 5 5 5 5 7 8 8 7 6 6 6 7 8 8 9 10 10
21 21 21 20 20 19 19 18 17 17 16 16 16 16 16 16 15 13 12 10 9 9 8 8 8 9 10 11 11 11 11 11 11 11 11 11 11 11 11 11 11 11 11 10 10 9 7 6 6 5 5 5 5 6 6 6 6 8 8 7 7 7 7 7 8 8 9 10 11
22 22 21 21 20 20 19 19 18 17 17 17 17 17 17 16 15 13 12 11 10 9 9 9 9 10 11 12 12 12 12 12 12 12 12 12 11 11 12 12 12 13 12 12 11 10 9 8 7 6 6 6 6 6 6 6 6 7 8 8 8 7 7 8 8 9 10 10 11
23 22 22 21 21 21 20 19 18 18 17 17 17 17 17 16 15 14 13 12 11 10 10 10 11 12 13 13 13 13 13 13 13 13 13 12 12 12 12 13 13 13 13 12 12 11 10 9 8 7 7 7 7 7 7 6 6 7 8 8 8 8 8 8 9 9 10 10 11
23 23 23 22 21 21 20 19 18 18 18 18 18 18 18 17 16 15 14 14 13 12 12 12 12 13 14 14 14 14 13 13 13 13 13 13 13 13 13 14 14 14 14 13 12 11 10 10 9 8 8 8 8 8 8 7 6 7 8 9 9 9 9 9 9 10 10 11 11
24 24 23 22 21 21 20 19 19 18 18 18 18 18 18 18 17 17 16 15 14 14 13 13 14 14 15 15 14 14 14 14 14 14 14 14 13 13 14 14 15 15 15 14 13 12 11 10 10 10 9 9 9 9 9 8 7 7 8 9 10 10 10 9 10 10 10 11 11
25 24 23 22 22 21 20 19 19 18 19 19 19 19 19 19 19 18 17 16 16 15 15 15 15 16 16 15 15 14 14 14 14 14 14 15 15 14 15 15 15 15 15 14 14 13 12 11 11 10 10 10 10 10 10 9 7 7 8 9 10 10 10 10 10 10 11 11 11
25 25 24 23 22 21 20 20 19 19 19 19 19 19 20 20 19 19 19 18 17 17 17 17 16 16 16 16 15 15 14 14 14 15 15 15 15 15 15 15 15 15 15 15 14 13 13 12 11 11 11 11 11 11 11 10 8 7 7 9 10 11 11 11 10 11 11 11 11
26 25 25 24 23 22 21 20 19 19 19 19 20 20 20 20 20 20 19 19 18 18 18 18 17 17 17 16 15 15 15 15 15 15 15 15 16 16 15 15 16 16 16 15 15 14 14 13 12 12 12 12 12 12 12 11 9 8 7 8 10 11 11 11 11 11 11 11 11
28 27 26 25 24 22 21 21 20 20 19 19 20 20 20 20 20 20 20 19 19 19 19 19 18 18 17 16 15 15 15 15 15 15 15 15 16 16 16 16 16 16 16 16 15 15 14 14 14 13 13 13 14 14 13 12 11 9 8 8 9 11 12 11 11 11 11 11 10
29 28 27 25 24 23 22 21 20 20 19 19 20 20 20 20 20 20 20 20 20 20 20 20 19 18 17 16 16 15 15 15 15 15 15 15 16 16 16 16 16 17 16 16 16 16 15 15 15 15 15 15 15 15 14 13 12 10 8 8 9 11 12 12 11 11 10 10 9
29 28 27 26 24 23 22 21 20 20 19 19 20 20 20 19 20 20 20 19 19 20 20 20 19 19 18 17 16 16 16 16 16 16 16 16 16 17 17 17 17 17 17 17 17 17 16 16 16 17 17 17 17 16 16 15 13 11 9 8 9 11 12 12 12 10 9 9 8
29 28 27 25 24 23 21 20 20 20 19 20 20 19 19 19 19 19 19 19 19 19 20 20 19 19 18 18 17 17 17 17 17 17 17 17 17 17 17 17 18 18 18 18 18 18 18 18 18 18 18 18 18 17 17 16 15 12 10 8 9 11 12 12 11 10 9 8 7
29 27 26 24 23 22 21 20 20 20 20 20 20 20 19 19 18 18 18 18 18 19 19 19 19 18 18 18 18 18 18 18 18 18 18 18 17 17 17 18 18 19 19 19 19 19 19 20 20 20 20 20 19 18 18 17 16 13 10 9 9 11 12 12 11 10 9 8 7
27 26 25 24 22 21 20 20 20 20 20 20 20 20 19 18 18 17 17 17 17 17 17 18 18 18 18 18 18 19 19 19 19 19 19 19 18 18 18 19 19 20 20 20 21 21 21 22 22 22 22 21 20 19 18 18 16 13 11 10 10 11 12 12 11 10 9 8 8
26 25 24 23 22 21 20 21 21 21 20 20 20 19 18 17 17 16 15 15 15 16 16 17 17 17 18 18 19 19 19 20 20 20 20 20 19 19 19 19 20 20 21 21 22 22 23 24 24 24 23 21 20 19 18 18 16 14 12 11 11 11 12 12 11 10 9 8 8
26 25 23 22 21 21 21 21 21 20 19 19 18 18 17 16 15 15 14 14 14 15 15 16 16 17 17 18 18 19 19 20 20 21 21 20 20 20 20 21 21 21 22 22 22 23 24 24 25 24 23 21 18 18 18 18 17 15 13 12 12 12 12 11 10 9 8 8 8
25 24 23 22 21 21 21 20 19 19 18 18 17 16 16 15 14 13 13 13 13 13 14 15 15 16 16 17 18 18 19 20 21 21 21 21 21 22 22 22 22 22 22 22 23 23 24 25 25 24 22 19 17 17 18 19 17 16 14 13 13 12 12 11 10 9 8 8 7
25 24 23 22 21 21 20 19 18 18 17 17 16 15 14 13 12 12 11 12 12 12 13 13 13 13 14 15 16 17 18 19 20 21 22 22 22 23 23 23 23 23 23 23 23 24 24 25 24 22 20 16 15 16 18 19 18 17 15 14 12 12 11 10 9 8 8 8 7
24 23 23 22 21 20 19 18 18 17 16 15 14 13 12 11 11 11 11 11 12 12 13 12 12 12 12 13 14 15 16 18 20 21 22 23 23 23 24 24 24 24 24 23 23 24 24 24 23 20 17 14 14 16 18 19 19 17 15 13 12 11 11 10 9 8 8 8 8
24 23 22 21 20 20 19 18 17 16 15 13 12 11 11 10 10 10 11 12 13 13 13 13 13 13 13 13 14 14 15 16 18 20 21 22 23 24 24 25 25 25 24 24 23 23 23 22 21 18 15 13 15 16 18 19 19 17 15 13 12 11 10 10 9 9 8 8 8
24 23 22 21 20 19 18 17 16 14 13 12 11 11 10 9 9 10 11 13 13 14 14 14 14 14 15 15 15 15 16 16 17 18 20 21 22 23 24 25 25 25 25 24 23 23 22 21 18 16 14 15 17 18 19 20 19 18 16 13 12 11 10 10 9 9 9 9 9
23 22 21 20 19 18 17 16 15 13 12 11 10 9 9 9 11 12 13 14 14 14 14 15 15 16 17 17 17 17 18 18 19 19 20 20 21 22 23 24 25 25 25 24 24 23 22 20 18 17 17 18 19 19 20 20 19 18 16 14 12 11 10 10 10 10 9 9 9
22 21 20 19 18 17 16 15 14 12 11 10 8 8 9 12 14 15 15 15 15 15 15 16 16 17 18 18 19 20 20 21 21 21 21 21 21 22 23 24 24 25 25 25 25 24 23 21 20 19 20 20 20 20 20 20 19 18 16 14 12 11 10 10 10 10 10 9 9
21 20 19 18 17 16 15 14 13 11 9 7 7 9 11 14 16 17 17 16 16 16 16 16 17 17 18 19 20 21 22 22 23 23 23 23 23 23 23 24 24 25 25 25 25 25 24 23 22 21 21 20 20 21 21 21 20 18 16 14 12 11 11 11 11 11 10 9 9
20 19 18 18 17 16 14 13 11 9 6 6 7 10 12 14 16 18 18 16 16 15 16 16 17 18 19 20 21 22 23 23 23 24 24 25 25 24 23 23 23 24 24 25 26 26 25 24 23 22 21 20 21 21 22 22 20 19 16 14 12 11 11 11 11 11 10 10 10
19 19 18 17 16 15 13 11 8 6 4 5 8 11 13 16 17 18 17 16 15 15 15 16 17 18 20 21 22 22 23 23 24 24 25 25 25 24 23 22 22 23 24 26 27 26 25 24 23 22 21 21 22 22 22 22 20 18 16 14 12 11 11 11 11 11 11 11 11
19 18 18 17 15 14 11 8 5 3 4 6 9 12 14 16 17 17 16 14 14 15 15 17 18 19 21 22 23 23 23 23 24 25 25 25 25 23 22 22 22 23 24 26 26 26 25 24 24 23 22 22 23 23 23 22 20 18 16 14 12 11 10 10 11 11 12 12 12
18 17 17 15 13 11 8 5 3 2 4 7 11 13 15 16 17 16 15 14 14 15 16 18 19 20 21 22 22 23 23 23 23 24 24 24 24 23 22 22 23 24 25 26 26 25 25 25 25 25 24 24 24 23 22 21 20 18 16 14 12 10 10 10 11 12 13 13 13
17 16 15 13 10 7 5 3 2 3 5 9 11 13 15 16 16 15 15 15 16 16 18 19 19 20 20 21 21 22 22 22 22 22 23 23 22 22 22 23 24 24 25 25 25 25 25 26 26 26 26 25 24 23 22 20 19 18 15 13 11 10 10 11 12 13 14 14 13
16 14 12 9 7 5 3 2 2 4 7 10 12 13 15 16 16 16 16 16 17 17 18 18 18 18 19 19 19 20 21 22 22 22 22 21 21 21 22 23 24 25 25 25 25 25 26 26 27 27 27 26 24 23 21 20 19 17 15 13 11 10 10 11 13 14 15 14 14
13 12 10 7 5 4 3 2 3 5 8 11 12 14 15 16 17 17 17 17 17 17 17 17 17 17 18 18 19 20 21 22 22 22 21 20 20 20 22 23 25 25 25 24 25 25 26 27 27 28 28 27 24 22 20 19 18 17 15 13 11 11 11 12 13 15 15 15 14
Wind_Direction
158 159 159 159 159 157 157 157 159 161 163 164 163 164 164 163 160 157 156 155 152 148 146 144 141 136 133 133 133 134 133 134 132 130 127 125 124 123 123 123 122 118 111 100 88 80 74 74 72 61 49 36 29 23 16 10 5 2 360 360 1 3 5 9 9 8 5 3 359
157 159 159 159 159 158 157 157 158 161 164 166 167 167 167 166 163 160 158 156 154 151 149 146 143 141 139 140 143 145 145 145 142 140 138 137 136 135 135 137 137 134 126 115 98 86 76 70 63 54 41 26 17 12 7 0 356 355 355 357 358 0 3 5 3 0 357 354 351
159 161 162 162 162 161 159 158 160 162 165 167 169 169 169 168 166 163 160 158 157 156 153 149 147 145 145 149 154 158 159 156 154 152 151 152 152 153 156 158 157 154 146 131 112 91 75 62 50 37 23 11 4 1 358 352 349 349 351 353 354 357 358 357 353 349 347 344 342
163 164 165 166 166 165 165 164 165 166 167 167 168 169 169 169 168 165 163 161 161 160 157 154 151 151 153 159 165 169 169 167 166 166 166 168 170 173 177 181 179 173 167 157 137 106 72 53 38 26 14 4 357 353 350 347 345 345 347 348 350 351 349 345 341 339 338 336 335
166 167 169 169 169 169 169 170 169 168 169 169 169 169 169 169 169 167 167 165 165 164 163 161 158 157 162 171 175 178 177 176 176 177 179 181 184 187 191 195 194 193 189 186 174 154 86 39 25 15 7 359 352 346 344 344 344 344 344 344 344 342 338 334 331 330 329 329 329
167 169 170 170 170 171 171 172 172 171 171 172 171 171 171 172 172 171 170 170 170 170 170 167 166 167 173 180 184 184 183 183 184 186 188 190 192 195 198 201 204 205 205 204 203 205 213 335 3 2 356 351 343 338 337 342 344 343 342 340 338 334 330 326 323 322 322 323 324
169 169 170 171 172 173 173 173 174 174 174 174 174 174 174 175 175 175 175 175 176 176 176 176 176 180 185 187 189 189 189 189 189 191 194 196 198 200 204 206 209 211 212 214 215 218 226 256 307 333 340 334 329 325 328 337 343 343 340 335 332 327 324 320 319 318 318 318 320
171 171 172 173 174 175 176 176 176 176 176 177 178 178 179 179 179 178 179 180 181 182 182 183 185 191 195 195 195 195 195 195 195 196 198 201 203 206 209 211 212 213 214 217 219 222 228 242 262 289 306 312 309 308 315 328 340 343 340 332 326 322 319 317 316 315 315 316 318
171 172 174 175 177 178 179 179 179 179 179 180 181 182 183 183 183 183 184 184 185 186 188 190 195 200 202 202 201 201 202 202 201 202 203 206 209 212 215 215 214 214 215 217 220 222 228 236 248 265 281 291 293 295 302 318 336 343 342 333 321 315 314 314 314 314 314 315 316
172 173 174 175 178 180 181 182 182 183 182 183 184 186 187 188 189 189 189 189 190 191 194 198 202 205 206 206 206 207 207 208 208 208 210 212 215 218 219 218 216 215 215 216 219 223 227 233 241 252 268 278 282 283 290 308 332 343 343 334 319 309 307 309 312 313 313 314 315
174 175 176 176 178 180 181 182 183 184 185 186 187 189 191 193 194 194 194 195 196 197 200 205 208 209 210 210 210 211 212 213 214 215 215 217 220 222 222 221 219 217 216 217 219 222 226 231 237 245 257 268 274 276 280 296 325 340 344 337 322 308 301 303 306 309 312 313 314
176 177 178 178 179 180 181 183 184 186 188 189 191 193 195 197 198 198 199 200 204 206 207 211 212 212 213 213 214 215 216 217 218 219 220 221 223 224 224 222 220 218 217 218 220 223 226 230 235 242 250 258 266 269 273 286 316 336 342 339 328 313 301 298 300 304 307 309 311
178 178 179 179 179 181 182 185 187 189 191 193 195 197 199 201 203 204 205 207 213 216 216 216 215 215 214 214 215 216 218 220 221 222 223 223 225 226 225 223 220 219 218 219 221 224 226 231 236 241 246 252 259 263 267 279 306 330 340 339 332 319 306 298 297 299 303 305 308
180 180 180 181 181 183 185 188 190 192 194 196 199 201 203 205 207 209 211 214 219 222 221 218 216 215 215 215 216 217 219 221 223 224 225 226 227 227 225 223 221 220 220 220 222 224 227 231 236 241 244 248 254 257 261 272 296 323 337 340 335 325 313 302 296 296 299 302 304
182 183 183 184 185 187 189 191 194 196 198 200 202 205 207 209 211 213 216 218 220 222 221 217 215 214 214 215 216 218 220 222 224 225 227 228 229 228 227 225 223 222 221 221 223 226 229 233 237 240 243 247 251 254 258 266 287 315 334 340 338 332 321 307 297 293 294 297 300
185 186 187 188 189 191 193 195 197 199 201 203 206 208 210 212 214 216 218 219 220 219 218 216 214 213 212 213 215 218 221 223 225 228 230 231 231 230 229 227 225 223 223 223 224 227 231 235 238 241 243 247 250 252 255 262 279 305 329 339 341 336 327 313 299 291 289 291 295
188 189 190 191 192 194 196 199 201 202 204 206 208 211 213 215 216 218 218 219 218 217 216 215 214 212 211 211 214 218 221 224 227 229 232 234 234 233 231 229 227 226 225 225 227 229 231 235 238 240 244 247 250 252 254 259 271 295 321 335 339 337 329 317 302 290 285 285 288
190 191 192 194 195 197 199 201 203 205 207 209 211 213 215 216 218 218 219 219 217 216 216 215 214 213 212 213 216 220 223 226 229 231 234 236 236 235 234 233 231 228 227 228 229 231 233 235 237 239 243 247 250 252 254 258 267 285 309 328 335 335 330 320 306 292 283 281 283
192 193 194 195 197 199 200 203 205 207 209 211 213 215 217 218 219 219 219 218 218 217 217 216 215 215 216 218 221 224 227 230 232 234 236 237 237 237 237 235 232 230 229 230 231 233 234 236 237 239 242 247 249 250 253 256 263 277 298 318 329 332 329 321 309 296 285 280 279
194 195 196 197 198 200 202 205 208 209 211 212 214 216 218 219 219 220 219 219 219 219 218 218 218 219 221 224 227 229 231 234 235 236 237 237 238 238 238 236 234 232 231 231 232 234 235 236 237 239 242 246 247 248 250 253 258 269 286 306 321 327 326 321 310 298 286 279 276
195 197 197 199 200 202 204 207 210 211 212 213 215 217 218 220 220 220 221 221 221 221 220 221 222 224 226 229 231 234 235 237 237 237 238 238 239 239 239 237 235 233 233 233 234 235 235 236 236 238 240 244 246 247 248 251 254 261 275 295 311 320 322 319 310 298 286 276 271
197 198 199 200 201 204 207 210 211 212 213 214 216 218 220 221 221 222 223 223 222 222 222 224 227 230 233 235 237 238 239 239 238 238 239 239 240 240 239 238 236 235 235 234 234 235 235 235 236 237 239 241 243 245 247 249 251 256 267 285 303 314 318 316 309 297 282 270 266
198 199 200 201 203 206 209 211 212 213 214 216 218 219 220 221 221 222 222 222 222 223 225 229 232 236 239 241 242 242 241 240 239 239 239 240 240 240 240 239 237 237 236 236 235 235 235 235 235 235 237 237 239 241 244 246 248 252 262 279 297 309 314 313 306 294 278 266 262
199 200 201 202 205 208 210 212 213 214 216 217 219 219 220 220 220 220 220 221 224 227 231 235 239 243 245 246 246 245 243 241 240 239 239 240 240 241 240 239 239 239 239 238 237 237 237 237 236 235 234 234 236 239 242 244 246 250 261 277 293 305 311 310 303 290 275 262 258
199 200 201 203 206 209 212 214 215 216 218 219 219 218 218 218 219 220 222 225 229 234 239 243 247 249 250 250 249 247 245 243 242 240 240 240 241 241 240 240 240 241 241 240 240 240 242 242 240 237 234 232 234 238 241 243 244 250 261 276 290 302 307 306 299 287 272 260 256
200 201 202 205 208 211 213 215 216 217 217 216 215 214 214 216 219 222 227 231 237 242 246 250 253 254 254 254 252 250 247 245 243 242 241 241 242 241 241 242 243 243 242 242 242 242 244 244 243 239 234 231 234 238 242 242 245 251 261 274 288 298 303 301 293 282 268 259 256
200 201 203 206 209 211 213 214 213 212 210 209 209 210 213 217 222 227 232 239 244 249 252 255 257 259 259 258 256 253 250 248 246 244 243 243 243 242 242 243 244 244 244 243 243 244 244 244 241 236 232 230 236 243 245 244 246 252 261 273 285 294 297 296 288 276 263 255 254
199 201 204 206 209 210 209 207 205 203 202 203 206 210 216 221 226 232 238 244 249 253 255 258 261 263 264 263 260 257 255 252 249 247 246 245 244 244 244 244 246 246 246 245 245 244 244 242 237 230 226 230 241 248 249 247 249 253 261 271 282 290 293 291 282 270 258 252 255
199 201 203 205 205 203 201 198 197 198 200 204 209 215 220 225 231 238 245 249 252 254 256 259 263 267 269 269 267 263 260 256 253 251 249 247 246 246 246 246 247 247 247 246 245 244 242 238 231 225 225 235 247 252 251 249 250 254 260 269 278 286 288 285 275 262 253 252 258
198 200 201 200 199 197 195 194 196 199 203 208 213 218 224 230 238 246 252 254 256 257 260 263 267 270 272 273 273 270 266 261 258 255 252 250 249 248 248 248 248 247 246 245 244 243 240 234 226 224 230 246 254 255 251 249 250 253 259 267 275 282 284 279 266 254 249 253 262
197 198 197 196 194 193 193 195 198 201 205 210 215 221 229 239 249 256 259 260 261 263 265 267 270 272 275 276 276 275 272 269 264 259 255 254 253 252 252 251 250 248 245 244 243 241 236 229 224 229 243 255 258 255 251 247 249 252 257 264 273 279 280 271 257 248 246 253 263
196 196 195 193 193 193 194 196 199 202 206 210 217 227 243 259 267 268 266 265 265 266 268 270 272 275 277 278 278 278 275 272 268 264 261 259 258 258 257 254 251 247 244 242 241 238 232 227 228 239 251 257 257 252 247 245 247 251 256 262 270 275 274 263 250 243 244 253 264
194 194 193 193 193 193 195 196 198 201 205 211 223 245 264 273 274 272 269 266 266 268 271 273 276 278 279 280 280 279 277 274 272 270 268 267 265 264 261 256 250 246 243 241 238 235 231 230 236 246 253 255 251 246 243 243 246 250 254 259 266 271 269 258 247 241 243 252 263
193 192 192 192 192 193 194 195 196 199 205 220 246 265 272 273 272 270 268 266 268 271 274 277 279 281 282 282 281 280 278 277 276 275 274 273 270 266 261 256 250 246 242 240 237 235 233 235 242 247 250 249 245 241 240 241 244 247 251 256 263 268 265 256 247 242 244 252 261
191 190 190 191 191 192 191 191 193 199 216 246 266 271 270 269 269 268 268 267 269 274 277 279 282 283 283 282 280 279 278 278 278 277 276 274 271 266 260 255 251 247 243 239 237 236 236 239 244 247 246 243 239 237 237 239 242 245 248 253 261 265 262 254 246 243 244 250 257
190 190 189 189 189 188 188 188 194 210 240 264 269 269 267 267 267 268 268 269 272 276 279 281 282 282 282 281 280 279 279 280 279 279 277 274 269 264 258 253 249 245 242 238 236 236 238 242 245 245 242 238 235 235 236 238 240 242 245 251 259 263 259 251 243 241 242 247 253
190 190 189 188 186 185 186 190 200 224 253 265 266 266 265 266 267 267 268 271 276 279 282 283 283 283 283 283 283 283 283 283 282 281 278 274 269 262 255 249 245 242 240 237 236 237 240 244 246 243 238 233 232 232 234 236 237 239 243 250 258 261 257 248 242 239 240 244 251
189 189 188 184 183 183 186 190 198 230 256 262 263 263 264 265 266 267 270 275 280 283 285 285 286 286 287 288 288 288 287 285 284 283 280 276 269 261 253 245 242 240 238 236 236 239 243 246 245 240 235 231 230 230 231 232 234 237 242 249 257 260 256 248 241 238 239 243 249
187 186 183 180 179 178 176 173 193 242 257 259 260 261 262 264 267 271 275 279 282 285 287 288 289 291 292 294 293 292 289 287 285 284 281 277 270 261 250 242 238 237 236 236 238 242 245 246 243 238 233 230 228 228 229 230 231 235 241 249 256 260 257 249 242 239 240 244 249
182 180 176 172 167 163 161 169 218 248 254 255 257 259 262 265 269 275 279 282 283 285 287 290 292 295 297 298 297 295 293 291 288 285 281 275 268 258 248 240 237 235 236 237 240 243 244 243 240 235 231 228 226 226 227 228 230 234 241 250 258 262 259 252 247 244 244 246 250
172 169 167 161 156 151 151 178 226 243 249 252 257 261 265 269 274 278 281 282 283 285 288 291 294 296 298 298 298 298 298 296 293 289 282 274 263 253 245 239 236 236 237 239 241 243 243 240 236 232 228 225 223 224 226 227 229 234 242 253 263 266 262 256 252 250 249 249 252
Height
844 845 846 846 847 848 850 851 852 853 854 855 855 856 857 858 858 859 860 860 861 861 861 862 862 863 863 864 864 865 866 866 866 867 867 867 867 867 868 868 868 868 868 868 868 868 868 868 868 868 868 868 868 868 868 868 867 867 867 867 867 867 867 866 866 866 866 866 866
844 845 846 846 847 848 849 851 851 852 853 854 855 856 856 857 858 858 859 860 860 861 861 861 862 862 863 863 864 865 865 866 866 866 867 867 867 868 868 868 868 868 868 868 868 868 868 868 868 867 867 867 867 867 867 867 867 867 867 867 867 867 866 866 866 866 866 865 866
843 844 845 846 847 848 849 850 851 852 853 854 855 855 856 857 857 858 859 859 860 860 861 861 861 862 862 863 864 864 865 865 866 866 866 867 867 868 868 868 868 868 868 867 867 867 867 867 867 867 867 867 867 867 867 867 867 867 867 867 867 866 866 866 866 865 865 865 865
843 844 845 846 847 848 849 850 851 851 852 853 854 855 856 856 857 858 858 859 860 860 860 861 861 861 862 862 863 864 864 865 865 866 866 867 867 867 868 868 868 867 867 867 867 867 867 867 867 867 867 867 867 867 867 867 867 867 867 866 866 866 866 866 865 865 865 865 865
842 843 844 846 846 847 848 849 850 851 852 852 853 854 855 856 857 857 858 859 859 860 860 860 860 861 861 862 863 863 864 864 865 865 866 866 867 867 867 867 867 867 867 867 867 866 866 866 866 866 866 866 867 867 867 867 867 867 866 866 866 866 866 865 865 864 864 864 864
841 843 844 845 846 847 848 849 849 850 851 852 853 854 855 856 856 857 858 858 859 859 859 860 860 861 861 862 862 863 863 864 864 865 865 866 866 867 867 867 867 867 867 866 866 866 866 866 866 866 866 866 866 866 866 866 866 866 866 866 866 865 865 865 864 864 864 864 863
841 842 843 844 846 847 847 848 849 850 851 851 852 853 854 855 856 856 857 858 858 859 859 859 860 860 861 861 862 863 863 863 864 864 865 865 866 866 866 866 866 866 866 866 866 866 866 866 866 866 866 866 866 866 866 866 866 866 865 865 865 865 865 864 864 863 863 863 863
840 841 842 843 845 846 847 848 849 849 850 851 852 853 854 855 855 856 857 857 858 858 858 859 859 860 861 861 862 862 862 863 863 864 864 865 865 865 866 866 866 866 866 866 866 866 866 865 865 865 865 865 865 866 866 866 865 865 865 864 864 864 864 864 863 863 862 862 862
840 841 841 843 844 845 846 847 848 849 849 850 851 852 853 854 855 855 856 856 857 857 858 858 859 859 860 861 861 861 862 862 862 863 863 864 864 864 865 865 865 865 865 865 865 865 865 865 865 865 865 865 865 865 865 865 865 864 864 864 863 863 863 863 863 862 862 861 861
840 841 841 842 843 845 846 847 848 848 849 850 851 851 852 853 854 855 855 856 856 857 857 857 858 859 859 860 860 861 861 861 861 862 862 862 863 863 864 864 864 864 864 865 865 864 864 864 864 864 864 864 864 864 864 864 864 864 863 863 863 862 862 862 862 861 861 861 861
840 840 841 842 843 844 846 847 847 848 849 849 850 851 852 852 853 854 855 855 856 856 856 857 857 858 859 859 860 860 860 860 861 861 861 861 862 862 862 863 863 863 863 863 864 864 864 864 863 863 863 863 863 863 863 863 863 863 862 862 862 861 861 861 861 861 861 860 860
839 840 841 841 843 844 845 846 847 848 848 849 850 850 851 852 853 853 854 855 855 855 856 856 857 857 858 858 859 859 859 859 860 860 860 860 861 861 861 861 862 862 862 862 862 862 863 863 863 863 862 862 862 862 862 862 862 862 862 861 861 861 861 860 860 860 860 859 859
839 840 841 841 842 843 845 846 846 847 848 848 849 850 851 851 852 853 853 853 854 854 855 855 856 856 857 857 858 858 858 859 859 859 859 859 860 860 860 860 860 861 861 861 861 861 861 862 862 862 861 861 861 861 861 861 861 861 861 861 860 860 859 859 859 859 859 858 858
839 840 841 841 842 843 844 845 846 846 847 847 848 849 850 851 851 852 852 852 853 853 853 854 854 855 856 856 856 857 857 858 858 858 858 858 858 859 859 859 859 859 860 860 860 860 861 861 861 861 861 861 861 861 861 861 860 860 860 860 859 859 858 858 858 858 858 858 857
839 840 840 841 841 842 843 844 845 845 846 846 847 848 849 850 850 851 851 851 851 852 852 853 853 854 854 855 855 856 856 856 857 857 857 857 857 857 857 858 858 858 858 859 859 859 859 860 860 860 860 860 860 860 860 859 859 859 859 859 858 858 857 857 857 857 857 856 856
838 839 840 841 841 841 842 843 844 844 845 846 846 847 848 848 849 849 850 850 850 851 851 851 852 852 853 853 854 854 855 855 856 856 856 856 856 856 856 856 857 857 857 857 858 858 858 858 859 859 859 859 859 859 858 858 858 858 858 857 857 857 856 856 856 856 856 856 855
837 838 839 839 840 841 841 842 843 843 844 844 845 846 846 847 848 848 848 849 849 849 850 850 851 851 851 852 852 853 853 854 854 854 855 855 855 856 856 856 856 856 856 856 857 857 857 857 858 858 858 858 858 857 857 857 857 857 857 856 856 856 856 855 855 855 855 855 854
836 836 837 838 839 839 840 841 841 842 843 843 844 844 845 846 846 847 847 848 848 848 849 849 850 850 851 851 851 851 852 852 853 853 854 854 855 855 855 855 855 855 856 856 856 856 856 856 856 857 857 857 856 856 856 856 856 856 856 856 855 855 855 854 854 854 854 853 853
834 835 836 836 837 838 839 840 840 841 841 842 843 843 844 845 845 846 846 847 847 847 848 848 849 849 850 850 850 851 851 851 852 852 853 853 854 854 854 854 854 855 855 855 855 855 855 855 855 856 856 856 855 855 855 855 855 855 855 855 854 854 854 854 853 853 852 852 852
832 833 834 835 836 836 837 838 839 840 840 841 842 842 843 844 844 845 846 846 846 847 847 848 848 848 849 849 849 850 850 850 851 851 852 852 853 853 853 853 853 853 853 853 854 854 854 854 854 854 854 854 854 854 854 854 854 854 854 853 853 853 853 853 852 852 851 851 851
831 831 832 833 834 835 836 837 838 839 839 840 841 842 842 843 844 844 845 846 846 847 847 847 847 848 848 848 848 848 849 849 850 850 851 851 851 852 852 852 852 852 852 852 852 852 852 852 852 852 852 852 852 852 852 852 852 852 852 852 852 852 852 852 851 851 851 850 850
829 830 831 832 833 834 835 836 837 838 839 840 840 841 842 842 843 844 844 845 846 846 846 847 847 847 847 847 847 847 847 848 848 849 849 849 850 850 851 851 851 851 851 851 851 851 851 850 850 850 850 850 851 851 851 851 851 851 851 851 851 851 851 851 850 850 850 849 849
828 829 830 831 832 833 834 836 836 837 838 839 840 841 841 842 842 843 844 845 845 846 846 846 846 846 846 846 846 846 846 846 846 847 847 848 848 849 849 849 849 849 849 849 849 849 849 848 848 848 848 848 849 849 849 850 850 850 850 850 850 850 850 850 849 849 849 848 848
828 829 830 831 832 833 834 835 836 837 838 839 839 840 841 841 842 843 843 844 845 845 846 846 846 846 846 846 846 845 845 845 845 846 846 846 846 847 847 847 847 847 847 847 847 847 846 846 846 846 846 847 847 848 848 848 849 849 849 849 849 849 849 849 848 848 848 847 847
827 828 829 830 831 832 833 834 835 836 837 838 839 840 841 841 842 842 843 843 844 844 845 845 845 845 845 845 845 844 844 844 844 844 845 845 845 845 845 846 846 846 846 845 845 845 845 845 845 845 845 845 846 847 847 847 847 847 848 848 848 848 848 848 847 847 847 846 846
826 827 828 829 831 831 832 833 834 835 836 838 839 840 840 841 841 841 842 842 843 844 844 844 844 844 844 844 844 843 843 843 843 843 843 843 844 844 844 844 844 844 844 844 844 843 843 843 843 843 843 844 845 846 846 846 846 846 846 846 846 846 846 846 846 846 846 846 845
825 826 827 828 830 830 831 832 834 835 836 837 838 839 840 840 841 841 841 842 842 843 843 843 843 843 843 843 843 842 842 842 842 842 842 842 842 842 842 842 842 842 842 842 842 842 842 842 842 842 842 843 844 845 846 846 846 846 845 845 845 845 845 845 845 845 845 845 844
824 825 826 827 828 829 831 832 833 834 835 836 837 838 839 839 840 840 841 841 841 842 842 842 842 842 842 842 842 841 841 841 841 841 841 841 840 840 840 840 840 841 841 841 841 841 841 840 841 841 841 842 843 844 845 845 845 844 844 844 844 844 844 844 844 844 844 843 843
823 824 825 826 827 829 830 831 832 833 834 836 836 837 838 839 839 839 840 840 841 841 841 841 841 841 841 841 841 841 840 840 840 840 839 839 839 839 838 839 839 839 839 839 840 840 839 839 840 840 841 841 842 843 843 844 843 843 843 843 843 843 843 843 843 843 842 842 842
822 823 824 825 826 828 829 830 831 832 833 835 836 836 837 838 838 839 839 840 840 841 841 841 841 841 840 840 840 839 839 839 839 839 838 838 837 837 837 837 837 837 838 838 838 838 838 839 839 840 840 840 841 842 842 842 842 842 842 842 842 842 842 842 841 841 841 841 841
821 822 823 825 826 827 828 829 831 831 833 834 835 836 836 836 837 838 839 840 840 840 840 839 839 839 839 839 838 838 838 838 837 837 837 836 836 836 836 836 836 836 836 837 837 837 837 838 838 838 839 839 840 840 841 841 841 841 841 841 841 841 841 841 841 840 840 840 840
820 821 823 824 825 826 827 829 830 831 831 833 834 834 835 836 837 838 839 839 839 839 838 838 838 838 838 837 837 837 836 836 836 836 836 835 835 835 835 835 835 835 835 835 835 836 836 836 836 837 837 838 838 839 839 839 839 839 839 839 840 840 840 839 839 839 839 839 839
820 821 822 823 824 826 827 828 829 830 831 831 832 833 834 836 837 838 838 838 838 837 837 836 836 836 836 836 836 836 835 835 835 834 834 834 834 833 833 833 833 833 833 833 833 833 834 834 834 835 835 836 836 837 837 837 838 838 838 838 838 838 838 838 838 838 838 838 837
819 820 821 823 824 825 826 827 828 829 830 830 831 832 834 836 837 837 837 837 836 836 835 835 835 835 835 835 835 834 834 834 833 833 833 832 832 832 831 831 831 831 831 831 831 831 831 831 832 832 833 834 834 835 836 836 836 836 836 837 837 837 837 837 837 836 836 836 836
818 820 821 822 823 824 825 826 827 828 828 829 831 832 834 835 836 836 836 835 835 834 834 833 833 833 833 833 833 833 833 832 832 832 831 831 831 830 830 829 829 830 830 830 830 830 830 830 830 831 831 832 832 833 834 834 835 835 835 835 836 836 836 836 835 835 835 835 835
818 819 820 821 822 823 824 825 826 826 827 829 830 832 833 834 835 835 835 834 833 832 832 832 831 831 832 832 831 831 831 831 831 830 830 829 829 828 828 828 828 828 828 828 828 828 828 829 829 830 830 830 831 831 832 832 833 833 834 834 834 834 834 834 834 834 834 834 834
817 818 819 820 821 822 823 824 824 825 826 828 830 832 833 833 834 834 833 832 832 831 831 830 830 830 830 830 830 830 829 829 829 828 828 827 827 826 826 826 826 826 826 826 826 827 827 828 828 828 828 828 829 829 830 831 831 832 832 833 833 833 833 833 832 833 833 832 832
816 817 819 820 821 821 822 823 823 825 826 828 830 831 832 832 832 832 832 831 830 830 829 828 828 828 828 828 828 827 827 827 826 826 826 825 825 825 824 824 824 824 825 825 825 826 826 826 826 826 826 826 827 827 828 829 830 831 831 831 831 831 831 831 831 831 831 831 831
816 817 818 819 820 820 821 822 823 824 826 828 830 831 831 831 831 831 830 830 829 828 827 827 827 826 826 826 826 826 826 825 825 824 824 823 823 822 822 822 822 822 823 823 824 824 824 824 824 824 824 824 825 826 827 828 828 829 830 830 830 830 830 830 830 830 830 830 830
816 816 817 818 819 819 820 821 822 824 826 828 829 830 830 830 830 830 829 828 827 827 826 826 826 825 825 825 825 824 824 823 823 822 822 821 821 821 821 820 820 821 821 821 821 822 822 822 822 822 823 823 824 825 825 826 827 828 828 828 828 828 828 828 829 828 828 828 828
815 816 816 817 818 819 820 821 822 825 826 827 828 829 829 829 829 828 827 826 826 825 825 825 824 824 824 824 823 823 822 821 821 821 820 820 819 819 819 819 819 819 819 820 820 820 820 820 821 821 821 822 823 824 824 826 826 827 827 827 827 827 827 827 827 827 827 827 827